| time (UTC) | temp C | wind direction | speed KPH | gust KPH | rain 1hr cm | rain 24hr cm | rain mn cm | humidity % | barometer mb |
| 20260504173036 | 22 | 156 | 16.1 | 32.2 | 0.00 | 0.03 | 0.03 | 32 | 1007.2 |
| 20260504171530 | 22 | 176 | 12.9 | 25.7 | 0.00 | 0.03 | 0.03 | 33 | 1007.4 |
| 20260504140120 | 17 | 271 | 12.9 | 30.6 | 0.00 | 0.00 | 0.00 | 40 | 1009.6 |
| 20260504081553 | 5 | 170 | 0.0 | 0.0 | 0.00 | 0.03 | 0.00 | 73 | 1009.6 |
| 20260504050113 | 5 | 217 | 0.0 | 0.0 | 0.00 | 0.03 | 0.00 | 66 | 1010.1 |
| 20260504044545 | 5 | 217 | 0.0 | 0.0 | 0.00 | 0.03 | 0.00 | 64 | 1010.1 |
| 20260504043041 | -17 | 217 | 0.0 | 0.0 | 0.00 | 0.03 | 0.00 | 1010.1 | |
| 20260504041537 | -17 | 217 | 0.0 | 0.0 | 0.00 | 0.03 | 0.00 | 1010.1 | |
| 20260504040034 | 5 | 217 | 0.0 | 0.0 | 0.00 | 0.03 | 0.00 | 64 | 1010.0 |
| 20260504034541 | 5 | 219 | 0.0 | 0.0 | 0.00 | 0.03 | 0.03 | 63 | 1010.0 |
| 20260504033032 | 5 | 220 | 0.0 | 0.0 | 0.00 | 0.03 | 0.03 | 61 | 1009.7 |
| 20260504031533 | 6 | 220 | 0.0 | 0.0 | 0.00 | 0.03 | 0.03 | 60 | 1009.6 |
| 20260504030038 | 6 | 220 | 0.0 | 0.0 | 0.00 | 0.03 | 0.03 | 58 | 1009.6 |
| 20260504024530 | 6 | 220 | 0.0 | 0.0 | 0.00 | 0.03 | 0.03 | 56 | 1009.7 |
| 20260504023030 | 6 | 220 | 0.0 | 0.0 | 0.00 | 0.03 | 0.03 | 55 | 1009.6 |
| 20260504021529 | 6 | 220 | 0.0 | 0.0 | 0.00 | 0.03 | 0.03 | 52 | 1009.6 |
| 20260504020030 | 7 | 220 | 0.0 | 0.0 | 0.00 | 0.03 | 0.03 | 51 | 1009.5 |
| 20260504014529 | 7 | 220 | 0.0 | 0.0 | 0.00 | 0.05 | 0.03 | 49 | 1009.2 |
| 20260504013028 | 7 | 235 | 0.0 | 3.2 | 0.00 | 0.05 | 0.03 | 48 | 1009.1 |
| 20260504011528 | 8 | 207 | 0.0 | 4.8 | 0.00 | 0.05 | 0.03 | 47 | 1009.0 |
| 20260504010027 | 8 | 269 | 0.0 | 0.0 | 0.00 | 0.05 | 0.03 | 45 | 1008.8 |
| 20260504004528 | 9 | 269 | 0.0 | 0.0 | 0.00 | 0.05 | 0.03 | 43 | 1008.5 |
| 20260504003026 | 10 | 286 | 0.0 | 0.0 | 0.00 | 0.05 | 0.03 | 42 | 1008.4 |
| 20260504001525 | 10 | 295 | 0.0 | 1.6 | 0.00 | 0.05 | 0.03 | 41 | 1008.0 |
| 20260504000025 | 10 | 295 | 0.0 | 6.4 | 0.00 | 0.05 | 0.03 | 39 | 1007.9 |
| 20260503234527 | 11 | 279 | 4.8 | 14.5 | 0.00 | 0.05 | 0.03 | 38 | 1007.6 |
| 20260503233024 | 11 | 252 | 0.0 | 9.7 | 0.00 | 0.05 | 0.03 | 39 | 1007.5 |
| 20260503231526 | 11 | 253 | 6.4 | 14.5 | 0.00 | 0.05 | 0.03 | 38 | 1007.4 |
| 20260503230028 | 11 | 305 | 1.6 | 8.0 | 0.00 | 0.05 | 0.03 | 40 | 1007.4 |
| 20260503224522 | 11 | 329 | 1.6 | 19.3 | 0.00 | 0.08 | 0.03 | 39 | 1007.4 |
| 20260503223025 | 11 | 311 | 3.2 | 17.7 | 0.00 | 0.08 | 0.03 | 40 | 1007.3 |
| 20260503221521 | 11 | 281 | 6.4 | 17.7 | 0.00 | 0.08 | 0.03 | 39 | 1007.3 |
| 20260503220027 | 11 | 282 | 8.0 | 16.1 | 0.00 | 0.08 | 0.03 | 40 | 1007.4 |
| 20260503214519 | 12 | 336 | 6.4 | 20.9 | 0.00 | 0.08 | 0.03 | 40 | 1007.4 |
| 20260503213019 | 12 | 224 | 4.8 | 19.3 | 0.00 | 0.08 | 0.03 | 41 | 1007.4 |
| 20260503211522 | 12 | 248 | 4.8 | 22.5 | 0.00 | 0.08 | 0.03 | 41 | 1007.4 |
| 20260503210018 | 12 | 264 | 8.0 | 17.7 | 0.00 | 0.08 | 0.03 | 42 | 1007.3 |
| 20260503204516 | 12 | 316 | 4.8 | 29.0 | 0.00 | 0.10 | 0.03 | 42 | 1007.1 |
| 20260503203022 | 12 | 259 | 3.2 | 19.3 | 0.00 | 0.10 | 0.03 | 41 | 1007.1 |
| 20260503201515 | 12 | 273 | 6.4 | 25.7 | 0.00 | 0.10 | 0.03 | 41 | 1007.0 |
| 20260503200015 | 12 | 268 | 8.0 | 25.7 | 0.00 | 0.15 | 0.03 | 41 | 1007.1 |
| 20260503194520 | 12 | 288 | 11.3 | 30.6 | 0.00 | 0.15 | 0.03 | 42 | 1007.0 |
| 20260503193014 | 12 | 207 | 11.3 | 27.4 | 0.00 | 0.15 | 0.03 | 40 | 1007.0 |
| 20260503191513 | 12 | 291 | 8.0 | 27.4 | 0.00 | 0.15 | 0.03 | 42 | 1007.0 |
| 20260503190015 | 12 | 311 | 4.8 | 25.7 | 0.00 | 0.23 | 0.03 | 43 | 1007.3 |
| 20260503184512 | 12 | 197 | 8.0 | 20.9 | 0.00 | 0.23 | 0.03 | 42 | 1007.1 |
| 20260503183011 | 12 | 245 | 6.4 | 20.9 | 0.00 | 0.23 | 0.03 | 44 | 1007.2 |
| 20260503181510 | 12 | 13 | 4.8 | 22.5 | 0.00 | 0.23 | 0.03 | 45 | 1007.3 |
| 20260503180024 | 13 | 213 | 6.4 | 22.5 | 0.00 | 0.28 | 0.03 | 43 | 1007.1 |
| 20260503174518 | 13 | 14 | 8.0 | 24.1 | 0.00 | 0.28 | 0.03 | 47 | 1007.1 |